Home   Weather   Santa María   Past weeks

Flag for Brazil Past Weather in Santa María, Rio Grande do Sul, Brazil — Yesterday and Last 2 Weeks

Now
66 °F

Rain. Mostly cloudy.


Feels Like: 66 °F
Forecast: 51 / 66 °F
Wind: 6 mph from Northwest

Location: Porto Alegre Aero-Porto

Current Time: Apr 26, 2017 at 1:31:57 am

Latest Report: Apr 26, 2017 at 1:00 am


Visibility: 2 mi

Pressure: 29.62 "Hg

Humidity: 100%

Dew Point: 66 °F

Location of Santa MaríaLocation

Past Weather in Santa María — Graph

°F

Santa María Temperature Yesterday

Maximum temperature yesterday: 72 °F (at 4:00 pm)
Minimum temperature yesterday: 64 °F (at 3:00 am)
Average temperature yesterday: 67 °F

High & Low Weather Summary for the Past Weeks

 TemperatureHumidityPressure
High82 °F (Apr 20, 2:00 pm)100% (Apr 14, 5:00 am)30.21 "Hg (Apr 14, 5:00 am)
Low52 °F (Apr 23, 6:00 am)41% (Apr 12, 4:00 pm)29.56 "Hg (Apr 25, 10:00 pm)
Average68 °F81%30.01 "Hg
* Reported Apr 11 12:00 am — Apr 26 12:00 am, Santa María, Weather by CustomWeather, © 2017

Note: Actual official high and low records may vary slightly from our data, if they occured in-between our weather recording intervals... More about our weather records

Advertising

Santa María Weather History for the Previous 24 Hours

Scroll right to see more
 ConditionsComfort  
Time TempWeatherWind HumidityBarometerVisibility
12:00 am
Wed, Apr 26
66 °FLight rain. Mostly cloudy.7 mph100%29.62 "Hg2 mi
11:00 pm
Tue, Apr 25
66 °FThunderstorms. Passing clouds.13 mph94%29.59 "Hg2 mi
10:10 pm66 °FThunderstorms. Mostly cloudy.12 mph94%N/A2 mi
10:00 pm66 °FRain. Mostly cloudy.10 mph94%29.56 "Hg2 mi
9:00 pm68 °FLight rain. Overcast.7 mph88%29.62 "Hg3 mi
8:00 pm70 °FLight rain. Mostly cloudy.6 mph83%N/AN/A
7:00 pm68 °FLight rain. Mostly cloudy.3 mph88%N/AN/A
6:00 pm70 °FLight rain. Mostly cloudy.5 mph78%N/AN/A
5:00 pm70 °FMostly cloudy.12 mph78%29.68 "HgN/A
4:00 pm72 °FMore clouds than sun.10 mph73%29.65 "HgN/A
3:00 pm70 °FOvercast.8 mph83%29.65 "HgN/A
2:00 pm70 °FOvercast.12 mph83%29.68 "HgN/A
1:00 pm70 °FOvercast.16 mph78%29.77 "HgN/A
12:00 pm68 °FLight rain. Mostly cloudy.13 mph88%29.83 "HgN/A
11:00 am66 °FLight rain. Mostly cloudy.10 mph94%29.89 "Hg5 mi
10:00 am66 °FLight rain. Fog.13 mph94%29.92 "Hg3 mi
9:00 am66 °FLight rain. Fog.7 mph94%29.92 "Hg2 mi
8:15 am66 °FLight rain. Fog.5 mph94%N/A2 mi
8:00 am66 °FLight rain. Overcast.5 mph94%29.89 "Hg3 mi
7:00 am66 °FLight rain. Overcast.8 mph88%29.83 "Hg4 mi
6:00 am66 °FLight rain. Overcast.2 mph94%29.80 "Hg6 mi
5:00 am66 °FMostly cloudy.2 mph88%29.83 "HgN/A
4:00 am66 °FOvercast.6 mph94%29.83 "Hg6 mi
3:00 am64 °FPassing clouds.5 mph100%29.89 "Hg5 mi
2:00 am66 °FPassing clouds.5 mph94%29.89 "Hg5 mi
1:00 am66 °FPassing clouds.6 mph88%29.89 "Hg6 mi
Weather by CustomWeather, © 2017

See weather overviewHow to use our weather pages